Tracking 31027 objects as of 19-Jul-2025
HD Live streaming from Space Station
objects crossing your sky now

ATLAS 5 CENTAUR DEB

Track ATLAS 5 CENTAUR DEB now!


NORAD ID: 43990
Int'l Code: 2014-055AV
Perigee: 7,931.9 km
Apogee: 34,661.5 km
Inclination: 19.8 °
Period: 763.3 minutes
Semi major axis: 27667 km
RCS: Unknown
Launch date: September 17, 2014
Source: United States (US)
Launch site: AIR FORCE EASTERN TEST RANGE (AFETR)

Note: This is SATELLITE DEBRIS
Your satellite tracking list
XMM
Track 1 satellite(s)




NASA's NSSDC Master Catalog

Two Line Element Set (TLE):
1 43990U 14055AV  25193.18616356 -.00000024  00000-0  00000-0 0  9993
2 43990  19.8297 168.0513 4830465 123.2426 292.5418  1.88644110 46708
Source of the keplerian elements: AFSPC